Regional Weather Roundup
Issued by NWS

Home | Current Version | Previous Version | Graphics & Text | Print | Product List | Glossary On
Versions: 1 2 3 4 5 6 7 8 9 10 11 12 13 14 15 16 17 18 19 20 21 22 23 24 25 26 27
000
ASUS45 KCYS 181610
RWRWY

WYOMING REGIONAL WEATHER ROUNDUP
NATIONAL WEATHER SERVICE CHEYENNE WY
1000 AM MDT FRI APR 18 2014

NOTE:  "FAIR" INDICATES FEW OR NO CLOUDS BELOW 12,000 FEET
WITH NO SIGNIFICANT WEATHER AND/OR OBSTRUCTIONS TO VISIBILITY.

WYZ001-181700-
YELLOWSTONE NATIONAL PARK

CITY           SKY/WX    TMP DP  RH WIND       PRES   REMARKS
LK YELLOWSTONE   N/A     34  33  96 CALM      29.88F
W YELLOWSTONE  NOT AVBL

$$
WYZ002>013-054>058-071-098>099-181700-
NORTHERN WYOMING

CITY           SKY/WX    TMP DP  RH WIND       PRES   REMARKS
JACKSON        CLOUDY    39  37  93 SW6       29.89S WCI  35
CODY           MOSUNNY   57  37  47 S3        29.73F
GREYBULL       PTSUNNY   54  33  45 CALM      29.71F
WORLAND        CLOUDY    57  34  41 S12G23    29.71S
SHERIDAN       PTSUNNY   53  37  54 NE7       29.68F
BUFFALO        PTSUNNY   63  31  30 S14       29.70F
GILLETTE       CLOUDY    58  35  42 S22G29    29.72F
HULETT         FAIR      57  32  38 S12       29.78
NEWCASTLE      FAIR      59  30  33 SE9       29.82

$$
WYZ014>020-022>026-101>103-181700-
CENTRAL WYOMING

CITY           SKY/WX    TMP DP  RH WIND       PRES   REMARKS
BIG PINEY      PTSUNNY   44  23  43 VRB3      29.92F
PINEDALE       PTSUNNY   46  28  49 SE9       29.93F
DUBOIS         CLOUDY    52  23  32 W25G37    29.83S
LANDER         PTSUNNY   57  25  29 MISG      29.77F
RIVERTON       CLOUDY    53  25  33 SW10G16   29.79F
CASPER         CLOUDY    58  29  33 SW26G37   29.83S
DOUGLAS        CLOUDY    61  33  35 SW7       29.85F

$$
WYZ021-027>030-104>119-181700-
SOUTHERN WYOMING

CITY           SKY/WX    TMP DP  RH WIND       PRES   REMARKS
EVANSTON       PTSUNNY   58  20  22 SW24G33   29.95R
KEMMERER       PTSUNNY   54  23  30 SW16      29.95S
FORT BRIDGER   FAIR      64  17  16 SW28G37   29.97S
ROCK SPRINGS   CLOUDY    59  21  23 S26G32    29.93F
DIXON          FAIR      60  27  28 S17G24    30.05F
RAWLINS        PTSUNNY   59  23  25 SW30G38   29.97S
SARATOGA       FAIR      59  25  27 SW22G30   30.03S
LARAMIE        CLOUDY    54  26  34 SW24      30.02F
CHEYENNE       CLOUDY    56  30  37 S17       30.00R
TORRINGTON     CLOUDY    57  41  55 SE7       29.88F
PINE BLUFFS    FAIR      61  32  33 S17       29.97S

$$



USA.gov is the U.S. government's official web portal to all federal, state and local government web resources and services.